AFL1712 URSS-UBBB

Flight info

Callsign AFL1712
Flight time N/A
Altitude 37000
Route IRGI1T IRGID A944 RESLO B491 BAPNI A837 MOTEG N23 ERLEV ERLE1H
Aircraft A339/M-VGD/A

Departure

Time N/A
Airport Sochi International Airport (URSS)

Arrival

Time 2026-05-06 19:42
Airport Heydar Aliyev International Airport (UBBB)
Time Latitude Longitude Altitude Speed Heading
2026-05-06 18:45 43.66809 43.97596 37000 ft 479 kts 107°
2026-05-06 18:45 43.65857 44.02005 37000 ft 479 kts 107°
2026-05-06 18:46 43.63950 44.10816 37000 ft 479 kts 107°
2026-05-06 18:46 43.62045 44.19629 37001 ft 479 kts 107°
2026-05-06 18:47 43.60149 44.28442 37000 ft 479 kts 107°
2026-05-06 18:47 43.58565 44.35773 37000 ft 480 kts 107°
2026-05-06 18:48 43.56652 44.44585 37000 ft 479 kts 107°
2026-05-06 18:48 43.54728 44.53407 37000 ft 481 kts 107°
2026-05-06 18:49 43.52795 44.62231 37000 ft 481 kts 107°
2026-05-06 18:49 43.50857 44.71043 37000 ft 480 kts 107°
2026-05-06 18:50 43.48915 44.79840 37000 ft 480 kts 107°
2026-05-06 18:50 43.46966 44.88629 37000 ft 480 kts 107°
2026-05-06 18:51 43.45024 44.97350 37000 ft 479 kts 107°
2026-05-06 18:51 43.43063 45.06121 37000 ft 479 kts 107°
2026-05-06 18:52 43.41098 45.14877 37000 ft 479 kts 107°
2026-05-06 18:52 43.39123 45.23641 37000 ft 479 kts 107°
2026-05-06 18:53 43.37143 45.32388 37000 ft 479 kts 107°
2026-05-06 18:53 43.35153 45.41148 37000 ft 479 kts 107°
2026-05-06 18:54 43.33027 45.49821 37001 ft 479 kts 113°
2026-05-06 18:54 43.29829 45.57822 37000 ft 478 kts 125°
2026-05-06 18:55 43.25869 45.65153 37000 ft 478 kts 127°
2026-05-06 18:55 43.21920 45.72506 37000 ft 479 kts 126°
2026-05-06 18:56 43.17976 45.79845 37000 ft 479 kts 126°
2026-05-06 18:56 43.14020 45.87181 37000 ft 479 kts 127°
2026-05-06 18:57 43.10052 45.94518 37000 ft 479 kts 127°
2026-05-06 18:57 43.06094 46.01821 37000 ft 482 kts 127°
2026-05-06 18:58 43.02083 46.09164 37000 ft 483 kts 127°
2026-05-06 18:58 42.98051 46.16506 37000 ft 482 kts 127°
2026-05-06 18:59 42.94031 46.23818 37000 ft 483 kts 127°
2026-05-06 18:59 42.89973 46.31183 37000 ft 488 kts 127°
2026-05-06 19:00 42.85885 46.38584 37000 ft 487 kts 127°
2026-05-06 19:00 42.81781 46.45993 37001 ft 490 kts 127°
2026-05-06 19:01 42.77693 46.53354 37000 ft 486 kts 127°
2026-05-06 19:01 42.73610 46.60689 37000 ft 480 kts 127°
2026-05-06 19:02 42.69561 46.67946 37000 ft 485 kts 127°
2026-05-06 19:02 42.65452 46.75290 37000 ft 490 kts 127°
2026-05-06 19:03 42.61329 46.82643 37000 ft 494 kts 127°
2026-05-06 19:03 42.57207 46.89977 37000 ft 487 kts 127°
2026-05-06 19:04 42.53124 46.97222 36999 ft 482 kts 127°
2026-05-06 19:04 42.49038 47.04455 37000 ft 486 kts 127°
2026-05-06 19:05 42.44932 47.11705 37001 ft 486 kts 128°
2026-05-06 19:05 42.40833 47.18928 37000 ft 483 kts 128°
2026-05-06 19:06 42.36712 47.26170 37000 ft 487 kts 128°
2026-05-06 19:06 42.32578 47.33418 37000 ft 489 kts 128°
2026-05-06 19:07 42.28433 47.40668 37000 ft 486 kts 128°
2026-05-06 19:07 42.24272 47.47928 37001 ft 491 kts 128°
2026-05-06 19:08 42.20100 47.55189 37000 ft 488 kts 128°
2026-05-06 19:08 42.15954 47.62388 37000 ft 485 kts 128°
2026-05-06 19:09 42.11806 47.69572 37000 ft 485 kts 128°
2026-05-06 19:09 42.07676 47.76710 37001 ft 483 kts 128°
2026-05-06 19:10 42.03540 47.83841 37001 ft 484 kts 128°
2026-05-06 19:10 41.99380 47.90995 37000 ft 484 kts 128°
2026-05-06 19:11 41.95237 47.98106 36999 ft 483 kts 128°
2026-05-06 19:11 41.91092 48.05201 37000 ft 481 kts 128°
2026-05-06 19:12 41.86964 48.12251 37000 ft 479 kts 128°
2026-05-06 19:12 41.82844 48.19270 37000 ft 479 kts 128°
2026-05-06 19:13 41.78718 48.26284 37000 ft 479 kts 128°
2026-05-06 19:13 41.74596 48.33276 37000 ft 479 kts 128°
2026-05-06 19:14 41.70458 48.40257 36965 ft 474 kts 130°
2026-05-06 19:14 41.65881 48.46272 36789 ft 454 kts 141°
2026-05-06 19:14 41.63362 48.48719 36644 ft 439 kts 147°
2026-05-06 19:15 41.60824 48.50905 36588 ft 428 kts 155°
2026-05-06 19:15 41.58327 48.53022 35951 ft 423 kts 155°
2026-05-06 19:15 41.55851 48.55111 35348 ft 419 kts 155°
2026-05-06 19:15 41.53401 48.57179 34766 ft 414 kts 156°
2026-05-06 19:16 41.50985 48.59219 34194 ft 409 kts 156°
2026-05-06 19:16 41.48594 48.61239 33559 ft 404 kts 156°
2026-05-06 19:16 41.46231 48.63234 32925 ft 399 kts 156°
2026-05-06 19:16 41.43909 48.65217 32271 ft 396 kts 154°
2026-05-06 19:17 41.41673 48.67347 31644 ft 394 kts 152°
2026-05-06 19:17 41.39482 48.69507 31033 ft 389 kts 153°
2026-05-06 19:17 41.37310 48.71615 30427 ft 384 kts 153°
2026-05-06 19:17 41.35151 48.73662 29777 ft 378 kts 154°
2026-05-06 19:18 41.33010 48.75657 29053 ft 374 kts 154°
2026-05-06 19:18 41.30882 48.77618 28346 ft 370 kts 154°
2026-05-06 19:18 41.28776 48.79552 27626 ft 366 kts 154°
2026-05-06 19:18 41.26693 48.81462 26941 ft 362 kts 154°
2026-05-06 19:19 41.24656 48.83329 26273 ft 359 kts 154°
2026-05-06 19:19 41.22613 48.85204 25591 ft 355 kts 154°
2026-05-06 19:19 41.20586 48.87060 24947 ft 352 kts 153°
2026-05-06 19:19 41.18580 48.88897 24310 ft 349 kts 153°
2026-05-06 19:20 41.16593 48.90717 23670 ft 346 kts 153°
2026-05-06 19:20 41.14617 48.92523 22935 ft 343 kts 152°
2026-05-06 19:20 41.12661 48.94315 22243 ft 339 kts 152°
2026-05-06 19:20 41.10730 48.96081 21528 ft 336 kts 152°
2026-05-06 19:21 41.08808 48.97838 20844 ft 334 kts 152°
2026-05-06 19:21 41.06905 48.99576 20186 ft 330 kts 152°
2026-05-06 19:21 41.05021 49.01297 19559 ft 327 kts 151°
2026-05-06 19:21 41.03158 49.02998 18931 ft 324 kts 151°
2026-05-06 19:22 41.01305 49.04687 18277 ft 321 kts 151°
2026-05-06 19:22 40.99470 49.06358 17547 ft 319 kts 151°
2026-05-06 19:22 40.97652 49.08012 16818 ft 316 kts 150°
2026-05-06 19:22 40.95843 49.09656 16103 ft 314 kts 150°
2026-05-06 19:23 40.94046 49.11287 15417 ft 312 kts 150°
2026-05-06 19:23 40.92280 49.12890 14729 ft 310 kts 150°
2026-05-06 19:23 40.90506 49.14502 14064 ft 309 kts 149°
2026-05-06 19:23 40.88748 49.16100 13534 ft 301 kts 149°
2026-05-06 19:24 40.87007 49.17684 13243 ft 309 kts 149°
2026-05-06 19:24 40.85242 49.19284 12851 ft 306 kts 149°
2026-05-06 19:24 40.83498 49.20867 12305 ft 302 kts 150°
2026-05-06 19:24 40.81771 49.22432 11592 ft 300 kts 150°
2026-05-06 19:25 40.80051 49.23989 10841 ft 300 kts 150°
2026-05-06 19:25 40.78328 49.25542 10271 ft 298 kts 149°
2026-05-06 19:25 40.76616 49.27086 9699 ft 298 kts 150°
2026-05-06 19:25 40.74921 49.28620 9169 ft 292 kts 149°
2026-05-06 19:26 40.73240 49.30135 8580 ft 291 kts 149°
2026-05-06 19:26 40.71577 49.31631 8042 ft 288 kts 148°
2026-05-06 19:26 40.69927 49.33119 7469 ft 286 kts 148°
2026-05-06 19:26 40.68307 49.34580 7161 ft 281 kts 148°
2026-05-06 19:27 40.66671 49.36053 7040 ft 285 kts 148°
2026-05-06 19:27 40.65037 49.37527 6993 ft 284 kts 148°
2026-05-06 19:27 40.63405 49.38997 6991 ft 285 kts 148°
2026-05-06 19:27 40.61769 49.40469 7014 ft 285 kts 148°
2026-05-06 19:28 40.60130 49.41942 6987 ft 286 kts 148°
2026-05-06 19:28 40.58487 49.43417 6999 ft 286 kts 148°
2026-05-06 19:28 40.56839 49.44895 7007 ft 287 kts 148°
2026-05-06 19:28 40.55209 49.46359 7000 ft 287 kts 148°
2026-05-06 19:29 40.53561 49.47837 7008 ft 287 kts 148°
2026-05-06 19:29 40.51907 49.49320 7001 ft 287 kts 148°
2026-05-06 19:29 40.50255 49.50800 6999 ft 288 kts 148°
2026-05-06 19:29 40.48600 49.52282 6976 ft 287 kts 148°
2026-05-06 19:30 40.46966 49.53744 6912 ft 279 kts 148°
2026-05-06 19:30 40.45400 49.55147 6796 ft 265 kts 148°
2026-05-06 19:30 40.43913 49.56478 6669 ft 251 kts 149°
2026-05-06 19:30 40.42479 49.57759 6341 ft 248 kts 149°
2026-05-06 19:31 40.41058 49.59021 5998 ft 245 kts 148°
2026-05-06 19:31 40.39654 49.60268 5668 ft 242 kts 148°
2026-05-06 19:31 40.36886 49.62724 5005 ft 238 kts 147°
2026-05-06 19:32 40.35526 49.63935 4687 ft 234 kts 147°
2026-05-06 19:32 40.34185 49.65130 4333 ft 233 kts 147°
2026-05-06 19:32 40.32846 49.66322 4001 ft 232 kts 146°
2026-05-06 19:32 40.31961 49.67108 3786 ft 231 kts 146°
2026-05-06 19:33 40.30204 49.68672 3349 ft 230 kts 146°
2026-05-06 19:33 40.28883 49.69845 3009 ft 229 kts 146°
2026-05-06 19:33 40.27707 49.71221 2627 ft 227 kts 123°
2026-05-06 19:33 40.27173 49.73106 2305 ft 219 kts 92°
2026-05-06 19:34 40.27218 49.74412 2122 ft 214 kts 77°
2026-05-06 19:34 40.27556 49.76303 2024 ft 216 kts 71°
2026-05-06 19:34 40.27933 49.78198 1996 ft 213 kts 73°
2026-05-06 19:34 40.28234 49.80112 2001 ft 216 kts 76°
2026-05-06 19:35 40.28461 49.82051 2002 ft 215 kts 79°
2026-05-06 19:35 40.28641 49.84003 2002 ft 216 kts 80°
2026-05-06 19:35 40.28802 49.85957 1998 ft 216 kts 81°
2026-05-06 19:35 40.28958 49.87915 2000 ft 216 kts 81°
2026-05-06 19:36 40.29116 49.89872 1983 ft 216 kts 81°
2026-05-06 19:36 40.29275 49.91832 1984 ft 216 kts 81°
2026-05-06 19:36 40.29431 49.93737 1986 ft 202 kts 80°
2026-05-06 19:36 40.29572 49.95500 1979 ft 187 kts 80°
2026-05-06 19:37 40.29707 49.97123 1979 ft 175 kts 80°
2026-05-06 19:37 40.29840 49.98730 1978 ft 176 kts 80°
2026-05-06 19:37 40.29973 50.00311 1982 ft 177 kts 80°
2026-05-06 19:37 40.30107 50.01912 1978 ft 175 kts 80°
2026-05-06 19:38 40.30241 50.03503 1978 ft 176 kts 80°
2026-05-06 19:38 40.30528 50.04976 1973 ft 159 kts 57°
2026-05-06 19:38 40.31256 50.05965 1983 ft 148 kts 28°
2026-05-06 19:38 40.32205 50.06409 1981 ft 143 kts
2026-05-06 19:39 40.33191 50.06515 1978 ft 144 kts 359°
2026-05-06 19:39 40.34195 50.06505 1978 ft 144 kts 357°
2026-05-06 19:39 40.35198 50.06488 1970 ft 144 kts 358°
2026-05-06 19:39 40.36192 50.06475 1917 ft 140 kts 358°
2026-05-06 19:40 40.37126 50.06460 1747 ft 133 kts 358°
2026-05-06 19:40 40.38074 50.06446 1553 ft 133 kts 358°
2026-05-06 19:40 40.39013 50.06430 1388 ft 137 kts 358°
2026-05-06 19:40 40.39943 50.06416 1216 ft 136 kts 358°
2026-05-06 19:41 40.40888 50.06401 1025 ft 132 kts 359°
2026-05-06 19:41 40.41825 50.06388 836 ft 135 kts 358°
2026-05-06 19:41 40.42759 50.06371 671 ft 139 kts 358°
2026-05-06 19:41 40.43733 50.06358 470 ft 136 kts 358°
2026-05-06 19:42 40.44673 50.06341 301 ft 140 kts 357°
2026-05-06 19:42 40.45633 50.06328 111 ft 133 kts 358°
2026-05-06 19:42 40.46543 50.06306 11 ft 103 kts 359°
2026-05-06 19:42 40.46932 50.06298 12 ft 40 kts 359°
2026-05-06 19:43 40.47184 50.06291 12 ft 36 kts 358°
2026-05-06 19:43 40.47339 50.06283 14 ft 13 kts 357°
2026-05-06 19:43 40.47439 50.06249 15 ft 17 kts 338°
2026-05-06 19:43 40.47544 50.06176 16 ft 16 kts 328°
2026-05-06 19:44 40.47555 50.06092 18 ft 6 kts 219°
2026-05-06 19:44 40.47493 50.06079 17 ft 12 kts 179°
2026-05-06 19:44 40.47387 50.06079 16 ft 18 kts 180°
2026-05-06 19:44 40.47243 50.06080 15 ft 23 kts 180°
2026-05-06 19:45 40.47065 50.06082 13 ft 28 kts 179°
2026-05-06 19:45 40.46986 50.06074 12 ft 7 kts 198°
2026-05-06 19:45 40.46949 50.05937 12 ft 22 kts 268°
2026-05-06 19:45 40.46943 50.05728 12 ft 23 kts 268°
2026-05-06 19:46 40.46938 50.05520 11 ft 23 kts 268°
2026-05-06 19:46 40.46934 50.05325 10 ft 16 kts 266°
2026-05-06 19:46 40.46886 50.05203 9 ft 14 kts 217°
2026-05-06 19:46 40.46853 50.05202 9 ft 0 kts 166°
2026-05-06 19:47 40.46815 50.05210 8 ft 17 kts 174°
2026-05-06 19:47 40.46770 50.05214 8 ft 1 kts 176°
2026-05-06 19:47 40.46758 50.05221 8 ft 5 kts 161°
2026-05-06 19:47 40.46737 50.05226 8 ft 0 kts 171°